Time,TemperatureF,DewpointF,PressureIn,WindDirection,WindDirectionDegrees,WindSpeedMPH,WindSpeedGustMPH,Humidity,HourlyPrecipIn,Conditions,Clouds,dailyrainin,SoftwareType,DateUTC
2013-11-16 00:01:00,45.7,38.6,30.25,WNW,301,0.0,2.0,76,0.00,,---,0.00,VWS V14.01,2013-11-16 05:01:00,
2013-11-16 00:02:00,45.7,38.6,30.25,WNW,302,0.0,1.0,76,0.00,,---,0.00,VWS V14.01,2013-11-16 05:02:00,
2013-11-16 00:07:00,45.7,38.6,30.25,WNW,296,0.0,1.0,76,0.00,,---,0.00,VWS V14.01,2013-11-16 05:07:00,
2013-11-16 00:12:00,45.8,38.7,30.25,SE,125,1.0,3.0,76,0.00,,---,0.00,VWS V14.01,2013-11-16 05:12:00,
2013-11-16 00:17:00,46.0,39.2,30.25,SSE,161,0.0,3.0,77,0.00,,---,0.00,VWS V14.01,2013-11-16 05:17:00,
2013-11-16 00:22:00,46.1,39.6,30.26,SSW,200,0.0,3.0,78,0.00,,---,0.00,VWS V14.01,2013-11-16 05:22:00,
2013-11-16 00:27:00,46.1,39.6,30.26,SSW,205,0.0,3.0,78,0.00,,---,0.00,VWS V14.01,2013-11-16 05:27:00,
2013-11-16 00:32:00,46.2,39.7,30.26,SSW,213,0.0,1.0,78,0.00,,---,0.00,VWS V14.01,2013-11-16 05:32:00,
2013-11-16 00:37:00,46.3,39.8,30.26,SSW,203,0.0,1.0,78,0.00,,---,0.00,VWS V14.01,2013-11-16 05:37:00,
2013-11-16 00:43:00,46.8,40.6,30.25,SSW,207,0.0,2.0,79,0.00,,---,0.00,VWS V14.01,2013-11-16 05:43:00,
2013-11-16 00:48:00,47.3,41.1,30.26,SW,217,1.0,4.0,79,0.00,,---,0.00,VWS V14.01,2013-11-16 05:48:00,
2013-11-16 00:53:00,47.7,41.5,30.26,East,96,3.0,4.0,79,0.00,,---,0.00,VWS V14.01,2013-11-16 05:53:00,
2013-11-16 00:58:00,48.2,41.7,30.25,SW,215,2.0,5.0,78,0.00,,---,0.00,VWS V14.01,2013-11-16 05:58:00,
2013-11-16 01:03:00,48.3,41.4,30.26,WSW,239,2.0,3.0,77,0.00,,---,0.00,VWS V14.01,2013-11-16 06:03:00,
2013-11-16 01:08:00,48.3,41.4,30.25,NW,319,2.0,3.0,77,0.00,,---,0.00,VWS V14.01,2013-11-16 06:08:00,
2013-11-16 01:13:00,47.8,40.6,30.25,WNW,294,1.0,3.0,76,0.00,,---,0.00,VWS V14.01,2013-11-16 06:13:00,
2013-11-16 01:18:00,47.3,40.5,30.25,WNW,299,2.0,3.0,77,0.00,,---,0.00,VWS V14.01,2013-11-16 06:18:00,
2013-11-16 01:23:00,47.3,40.5,30.25,WNW,296,3.0,3.0,77,0.00,,---,0.00,VWS V14.01,2013-11-16 06:23:00,
2013-11-16 01:28:00,47.1,39.9,30.25,WNW,296,2.0,3.0,76,0.00,,---,0.00,VWS V14.01,2013-11-16 06:28:00,
2013-11-16 01:33:00,47.0,39.8,30.24,NW,316,2.0,2.0,76,0.00,,---,0.00,VWS V14.01,2013-11-16 06:33:00,
2013-11-16 01:38:00,46.9,39.7,30.24,WNW,303,1.0,3.0,76,0.00,,---,0.00,VWS V14.01,2013-11-16 06:38:00,
2013-11-16 01:43:00,46.9,39.7,30.24,NW,318,1.0,3.0,76,0.00,,---,0.00,VWS V14.01,2013-11-16 06:43:00,
2013-11-16 01:48:00,46.8,39.7,30.24,WNW,302,1.0,3.0,76,0.00,,---,0.00,VWS V14.01,2013-11-16 06:48:00,
2013-11-16 01:53:00,46.8,39.7,30.25,WNW,289,4.0,4.0,76,0.00,,---,0.00,VWS V14.01,2013-11-16 06:53:00,
2013-11-16 01:58:00,47.0,39.8,30.25,NW,307,3.0,4.0,76,0.00,,---,0.00,VWS V14.01,2013-11-16 06:58:00,
2013-11-16 02:03:00,47.0,39.8,30.25,WNW,300,3.0,4.0,76,0.00,,---,0.00,VWS V14.01,2013-11-16 07:03:00,
2013-11-16 02:08:00,47.0,39.8,30.24,WNW,282,1.0,5.0,76,0.00,,---,0.00,VWS V14.01,2013-11-16 07:08:00,
2013-11-16 02:13:00,46.9,39.7,30.24,NW,318,2.0,5.0,76,0.00,,---,0.00,VWS V14.01,2013-11-16 07:13:00,
2013-11-16 02:18:00,47.0,39.8,30.24,WNW,293,2.0,5.0,76,0.00,,---,0.00,VWS V14.01,2013-11-16 07:18:00,
2013-11-16 02:23:00,47.0,39.8,30.24,WNW,300,4.0,5.0,76,0.00,,---,0.00,VWS V14.01,2013-11-16 07:23:00,
2013-11-16 02:28:00,47.2,39.7,30.24,WNW,285,4.0,5.0,75,0.00,,---,0.00,VWS V14.01,2013-11-16 07:28:00,
2013-11-16 02:33:00,47.2,39.3,30.24,West,279,5.0,5.0,74,0.00,,---,0.00,VWS V14.01,2013-11-16 07:33:00,
2013-11-16 02:38:00,47.2,39.3,30.24,West,264,5.0,6.0,74,0.00,,---,0.00,VWS V14.01,2013-11-16 07:38:00,
2013-11-16 02:43:00,47.3,39.5,30.25,West,278,5.0,6.0,74,0.00,,---,0.00,VWS V14.01,2013-11-16 07:43:00,
2013-11-16 02:48:00,47.5,39.3,30.25,West,280,5.0,8.0,73,0.00,,---,0.00,VWS V14.01,2013-11-16 07:48:00,
2013-11-16 02:53:00,47.4,39.9,30.25,West,277,6.0,8.0,75,0.00,,---,0.00,VWS V14.01,2013-11-16 07:53:00,
2013-11-16 02:58:00,47.2,39.7,30.25,WNW,298,2.0,8.0,75,0.00,,---,0.00,VWS V14.01,2013-11-16 07:58:00,
2013-11-16 03:03:00,47.2,39.7,30.25,West,276,3.0,5.0,75,0.00,,---,0.00,VWS V14.01,2013-11-16 08:03:00,
2013-11-16 03:08:00,47.3,39.8,30.25,WNW,289,4.0,5.0,75,0.00,,---,0.00,VWS V14.01,2013-11-16 08:08:00,
2013-11-16 03:13:00,47.5,39.6,30.25,WNW,298,2.0,6.0,74,0.00,,---,0.00,VWS V14.01,2013-11-16 08:13:00,
2013-11-16 03:18:00,47.5,39.6,30.25,WNW,300,4.0,6.0,74,0.00,,---,0.00,VWS V14.01,2013-11-16 08:18:00,
2013-11-16 03:23:00,47.4,39.9,30.25,West,274,5.0,6.0,75,0.00,,---,0.00,VWS V14.01,2013-11-16 08:23:00,
2013-11-16 03:28:00,47.1,40.3,30.25,NNW,328,2.0,6.0,77,0.00,,---,0.00,VWS V14.01,2013-11-16 08:28:00,
2013-11-16 03:33:00,46.9,40.1,30.25,SW,220,4.0,5.0,77,0.00,,---,0.00,VWS V14.01,2013-11-16 08:33:00,
2013-11-16 03:38:00,46.7,40.2,30.25,WSW,252,5.0,7.0,78,0.00,,---,0.00,VWS V14.01,2013-11-16 08:38:00,
2013-11-16 03:43:00,47.1,39.9,30.26,WSW,252,5.0,9.0,76,0.00,,---,0.00,VWS V14.01,2013-11-16 08:43:00,
2013-11-16 03:48:00,47.4,39.9,30.26,WSW,256,4.0,9.0,75,0.00,,---,0.00,VWS V14.01,2013-11-16 08:48:00,
2013-11-16 03:53:00,47.3,40.1,30.27,SW,233,3.0,9.0,76,0.00,,---,0.00,VWS V14.01,2013-11-16 08:53:00,
2013-11-16 03:58:00,47.3,40.5,30.28,WNW,283,6.0,13.0,77,0.00,,---,0.00,VWS V14.01,2013-11-16 08:58:00,
2013-11-16 04:03:00,47.4,40.9,30.27,West,280,4.0,5.0,78,0.00,,---,0.00,VWS V14.01,2013-11-16 09:03:00,
2013-11-16 04:08:00,47.4,40.9,30.27,WNW,294,2.0,5.0,78,0.01,,---,0.01,VWS V14.01,2013-11-16 09:08:00,
2013-11-16 04:13:00,47.3,41.5,30.27,WNW,282,5.0,5.0,80,0.01,,---,0.01,VWS V14.01,2013-11-16 09:13:00,
2013-11-16 04:18:00,47.2,41.4,30.27,West,281,3.0,6.0,80,0.01,,---,0.01,VWS V14.01,2013-11-16 09:18:00,
2013-11-16 04:23:00,47.0,41.5,30.27,WNW,289,3.0,6.0,81,0.01,,---,0.01,VWS V14.01,2013-11-16 09:23:00,
2013-11-16 04:28:00,46.7,41.2,30.27,WNW,288,3.0,6.0,81,0.01,,---,0.01,VWS V14.01,2013-11-16 09:28:00,
2013-11-16 04:33:00,46.5,41.3,30.26,WNW,290,3.0,4.0,82,0.01,,---,0.01,VWS V14.01,2013-11-16 09:33:00,
2013-11-16 04:38:00,46.3,41.1,30.26,West,276,3.0,4.0,82,0.01,,---,0.01,VWS V14.01,2013-11-16 09:38:00,
2013-11-16 04:43:00,46.2,41.3,30.26,West,278,3.0,4.0,83,0.01,,---,0.01,VWS V14.01,2013-11-16 09:43:00,
2013-11-16 04:48:00,46.2,41.3,30.26,West,269,3.0,4.0,83,0.01,,---,0.01,VWS V14.01,2013-11-16 09:48:00,
2013-11-16 04:53:00,46.1,41.5,30.26,West,276,3.0,4.0,84,0.01,,---,0.01,VWS V14.01,2013-11-16 09:53:00,
2013-11-16 04:58:00,46.1,41.5,30.26,NW,311,1.0,4.0,84,0.01,,---,0.01,VWS V14.01,2013-11-16 09:58:00,
2013-11-16 05:03:00,46.0,41.8,30.26,WNW,302,0.0,2.0,85,0.01,,---,0.01,VWS V14.01,2013-11-16 10:03:00,
2013-11-16 05:08:00,45.9,42.0,30.27,West,274,1.0,2.0,86,0.02,,---,0.02,VWS V14.01,2013-11-16 10:08:00,
2013-11-16 05:13:00,45.8,41.9,30.27,WNW,298,1.0,2.0,86,0.02,,---,0.02,VWS V14.01,2013-11-16 10:13:00,
2013-11-16 05:18:00,45.7,42.1,30.26,WNW,288,1.0,2.0,87,0.02,,---,0.02,VWS V14.01,2013-11-16 10:18:00,
2013-11-16 05:23:00,45.7,42.1,30.27,WNW,303,0.0,2.0,87,0.02,,---,0.02,VWS V14.01,2013-11-16 10:23:00,
2013-11-16 05:28:00,45.6,42.3,30.27,WNW,300,0.0,2.0,88,0.02,,---,0.02,VWS V14.01,2013-11-16 10:28:00,
2013-11-16 05:33:00,45.6,42.3,30.27,WNW,300,2.0,2.0,88,0.01,,---,0.02,VWS V14.01,2013-11-16 10:33:00,
2013-11-16 05:38:00,45.5,42.2,30.27,WNW,297,0.0,4.0,88,0.01,,---,0.02,VWS V14.01,2013-11-16 10:38:00,
2013-11-16 05:43:00,45.6,42.3,30.27,West,280,2.0,4.0,88,0.01,,---,0.02,VWS V14.01,2013-11-16 10:43:00,
2013-11-16 05:48:00,45.6,42.5,30.27,NW,309,1.0,4.0,89,0.02,,---,0.03,VWS V14.01,2013-11-16 10:48:00,
2013-11-16 05:53:00,45.5,42.5,30.28,WNW,295,0.0,4.0,89,0.03,,---,0.04,VWS V14.01,2013-11-16 10:53:00,
2013-11-16 05:58:00,45.4,42.3,30.28,North,352,2.0,4.0,89,0.04,,---,0.05,VWS V14.01,2013-11-16 10:58:00,
2013-11-16 06:03:00,45.2,42.2,30.27,WSW,237,4.0,6.0,89,0.04,,---,0.05,VWS V14.01,2013-11-16 11:03:00,
2013-11-16 06:08:00,45.2,42.2,30.27,NNW,330,2.0,6.0,89,0.04,,---,0.05,VWS V14.01,2013-11-16 11:08:00,
2013-11-16 06:13:00,45.1,42.1,30.27,North,354,0.0,6.0,89,0.05,,---,0.06,VWS V14.01,2013-11-16 11:13:00,
2013-11-16 06:18:00,45.0,42.2,30.27,NW,323,0.0,6.0,90,0.05,,---,0.06,VWS V14.01,2013-11-16 11:18:00,
2013-11-16 06:23:00,44.9,42.2,30.27,NW,313,3.0,6.0,90,0.05,,---,0.06,VWS V14.01,2013-11-16 11:23:00,
2013-11-16 06:28:00,44.7,42.0,30.27,NW,322,2.0,6.0,90,0.05,,---,0.06,VWS V14.01,2013-11-16 11:28:00,
2013-11-16 06:33:00,44.5,41.5,30.27,NE,37,1.0,4.0,89,0.04,,---,0.06,VWS V14.01,2013-11-16 11:33:00,
2013-11-16 06:38:00,44.6,41.6,30.28,NE,37,1.0,5.0,89,0.04,,---,0.06,VWS V14.01,2013-11-16 11:38:00,
2013-11-16 06:43:00,44.7,41.7,30.28,NE,37,2.0,5.0,89,0.04,,---,0.06,VWS V14.01,2013-11-16 11:43:00,
2013-11-16 06:48:00,44.8,41.5,30.28,ENE,60,4.0,5.0,88,0.04,,---,0.06,VWS V14.01,2013-11-16 11:48:00,
2013-11-16 06:53:00,44.9,41.6,30.28,NNE,25,1.0,5.0,88,0.04,,---,0.06,VWS V14.01,2013-11-16 11:53:00,
2013-11-16 06:58:00,45.1,41.8,30.29,NW,314,1.0,5.0,88,0.04,,---,0.06,VWS V14.01,2013-11-16 11:58:00,
2013-11-16 07:03:00,45.3,42.0,30.29,ENE,61,1.0,4.0,88,0.01,,---,0.06,VWS V14.01,2013-11-16 12:03:00,
2013-11-16 07:08:00,45.5,42.2,30.28,NNE,15,4.0,4.0,88,0.01,,---,0.06,VWS V14.01,2013-11-16 12:08:00,
2013-11-16 07:13:00,45.7,42.4,30.29,NNE,20,1.0,5.0,88,0.01,,---,0.06,VWS V14.01,2013-11-16 12:13:00,
2013-11-16 07:18:00,45.8,42.5,30.29,North,5,0.0,5.0,88,0.01,,---,0.06,VWS V14.01,2013-11-16 12:18:00,
2013-11-16 07:23:00,46.0,42.7,30.29,NNE,14,0.0,5.0,88,0.01,,---,0.06,VWS V14.01,2013-11-16 12:23:00,
2013-11-16 07:28:00,46.1,42.5,30.29,NE,40,3.0,5.0,87,0.01,,---,0.06,VWS V14.01,2013-11-16 12:28:00,
2013-11-16 07:33:00,46.3,42.7,30.30,NE,34,2.0,4.0,87,0.00,,---,0.06,VWS V14.01,2013-11-16 12:33:00,
2013-11-16 07:38:00,46.4,42.8,30.30,NNW,335,1.0,4.0,87,0.00,,---,0.06,VWS V14.01,2013-11-16 12:38:00,
2013-11-16 07:43:00,46.5,42.8,30.30,WSW,247,1.0,4.0,87,0.00,,---,0.06,VWS V14.01,2013-11-16 12:43:00,
2013-11-16 07:48:00,46.6,42.9,30.31,West,261,0.0,4.0,87,0.00,,---,0.06,VWS V14.01,2013-11-16 12:48:00,
2013-11-16 07:53:00,46.7,43.0,30.31,NW,314,0.0,4.0,87,0.01,,---,0.07,VWS V14.01,2013-11-16 12:53:00,
2013-11-16 07:58:00,46.8,43.4,30.31,NNW,337,0.0,4.0,88,0.03,,---,0.09,VWS V14.01,2013-11-16 12:58:00,
2013-11-16 08:03:00,46.7,43.3,30.31,WNW,303,1.0,2.0,88,0.03,,---,0.09,VWS V14.01,2013-11-16 13:03:00,
2013-11-16 08:08:00,46.6,43.2,30.31,North,2,1.0,3.0,88,0.04,,---,0.10,VWS V14.01,2013-11-16 13:08:00,
2013-11-16 08:13:00,46.4,43.3,30.31,NW,316,0.0,3.0,89,0.04,,---,0.10,VWS V14.01,2013-11-16 13:13:00,
2013-11-16 08:18:00,46.3,43.2,30.32,WNW,303,2.0,3.0,89,0.04,,---,0.10,VWS V14.01,2013-11-16 13:18:00,
2013-11-16 08:23:00,46.3,43.2,30.32,WNW,287,1.0,3.0,89,0.04,,---,0.10,VWS V14.01,2013-11-16 13:23:00,
2013-11-16 08:28:00,46.1,43.0,30.32,NNW,337,2.0,4.0,89,0.04,,---,0.10,VWS V14.01,2013-11-16 13:28:00,
2013-11-16 08:33:00,46.0,43.2,30.32,WNW,295,1.0,2.0,90,0.04,,---,0.10,VWS V14.01,2013-11-16 13:33:00,
2013-11-16 08:38:00,46.0,43.2,30.32,NNW,330,0.0,4.0,90,0.06,,---,0.12,VWS V14.01,2013-11-16 13:38:00,
2013-11-16 08:43:00,45.8,43.0,30.32,NNW,334,1.0,4.0,90,0.08,,---,0.14,VWS V14.01,2013-11-16 13:43:00,
2013-11-16 08:48:00,45.6,43.1,30.32,NW,307,0.0,4.0,91,0.09,,---,0.15,VWS V14.01,2013-11-16 13:48:00,
2013-11-16 08:53:00,45.6,43.1,30.33,NW,309,1.0,4.0,91,0.10,,---,0.16,VWS V14.01,2013-11-16 13:53:00,
2013-11-16 08:58:00,45.7,43.5,30.33,NNE,33,1.0,4.0,92,0.11,,---,0.17,VWS V14.01,2013-11-16 13:58:00,
2013-11-16 09:03:00,45.8,43.6,30.33,NE,37,3.0,3.0,92,0.09,,---,0.18,VWS V14.01,2013-11-16 14:03:00,
2013-11-16 09:08:00,46.0,43.8,30.33,ENE,57,1.0,3.0,92,0.09,,---,0.18,VWS V14.01,2013-11-16 14:08:00,
2013-11-16 09:13:00,46.3,44.1,30.33,ENE,78,1.0,3.0,92,0.09,,---,0.18,VWS V14.01,2013-11-16 14:13:00,
2013-11-16 09:18:00,46.2,44.0,30.32,ENE,72,2.0,3.0,92,0.09,,---,0.18,VWS V14.01,2013-11-16 14:18:00,
2013-11-16 09:23:00,46.3,44.4,30.33,NNE,30,0.0,3.0,93,0.09,,---,0.18,VWS V14.01,2013-11-16 14:23:00,
2013-11-16 09:28:00,46.6,44.7,30.33,ENE,66,1.0,3.0,93,0.09,,---,0.18,VWS V14.01,2013-11-16 14:28:00,
2013-11-16 09:33:00,46.9,45.0,30.33,NE,43,1.0,3.0,93,0.08,,---,0.18,VWS V14.01,2013-11-16 14:33:00,
2013-11-16 09:39:00,47.2,45.6,30.33,NNE,32,3.0,3.0,94,0.08,,---,0.18,VWS V14.01,2013-11-16 14:39:00,
2013-11-16 09:44:00,47.4,45.8,30.34,ENE,60,2.0,3.0,94,0.08,,---,0.18,VWS V14.01,2013-11-16 14:44:00,
2013-11-16 09:49:00,47.5,45.9,30.34,NNE,13,2.0,4.0,94,0.08,,---,0.18,VWS V14.01,2013-11-16 14:49:00,
2013-11-16 09:54:00,47.6,46.0,30.34,NNE,32,0.0,5.0,94,0.08,,---,0.18,VWS V14.01,2013-11-16 14:54:00,
2013-11-16 09:59:00,47.7,46.1,30.34,NE,42,3.0,5.0,94,0.08,,---,0.18,VWS V14.01,2013-11-16 14:59:00,
2013-11-16 10:04:00,47.9,46.3,30.34,NNE,26,3.0,5.0,94,0.00,,---,0.18,VWS V14.01,2013-11-16 15:04:00,
2013-11-16 10:09:00,47.9,46.3,30.34,NNE,27,1.0,6.0,94,0.00,,---,0.18,VWS V14.01,2013-11-16 15:09:00,
2013-11-16 10:14:00,48.1,46.5,30.34,NE,39,4.0,6.0,94,0.00,,---,0.18,VWS V14.01,2013-11-16 15:14:00,
2013-11-16 10:19:00,48.3,46.4,30.34,NE,35,2.0,6.0,93,0.00,,---,0.18,VWS V14.01,2013-11-16 15:19:00,
2013-11-16 10:24:00,48.4,46.5,30.34,NE,51,1.0,6.0,93,0.00,,---,0.18,VWS V14.01,2013-11-16 15:24:00,
2013-11-16 10:29:00,48.4,46.5,30.34,East,97,1.0,6.0,93,0.00,,---,0.18,VWS V14.01,2013-11-16 15:29:00,
2013-11-16 10:34:00,48.3,46.4,30.34,ENE,65,3.0,3.0,93,0.00,,---,0.18,VWS V14.01,2013-11-16 15:34:00,
2013-11-16 10:39:00,48.3,46.4,30.34,ENE,58,2.0,3.0,93,0.00,,---,0.18,VWS V14.01,2013-11-16 15:39:00,
2013-11-16 10:44:00,48.2,46.3,30.33,ENE,65,3.0,5.0,93,0.00,,---,0.18,VWS V14.01,2013-11-16 15:44:00,
2013-11-16 10:49:00,48.5,46.6,30.33,ENE,60,3.0,5.0,93,0.00,,---,0.18,VWS V14.01,2013-11-16 15:49:00,
2013-11-16 10:54:00,48.6,46.7,30.33,NE,39,3.0,5.0,93,0.00,,---,0.18,VWS V14.01,2013-11-16 15:54:00,
2013-11-16 10:59:00,48.6,46.7,30.33,ENE,76,1.0,5.0,93,0.00,,---,0.18,VWS V14.01,2013-11-16 15:59:00,
2013-11-16 11:04:00,48.6,46.7,30.32,ENE,65,2.0,4.0,93,0.00,,---,0.18,VWS V14.01,2013-11-16 16:04:00,
2013-11-16 11:09:00,48.6,46.7,30.32,East,101,2.0,4.0,93,0.00,,---,0.18,VWS V14.01,2013-11-16 16:09:00,
2013-11-16 11:14:00,48.4,46.2,30.32,ENE,59,3.0,6.0,92,0.00,,---,0.18,VWS V14.01,2013-11-16 16:14:00,
2013-11-16 11:19:00,48.5,46.3,30.32,NE,56,3.0,6.0,92,0.00,,---,0.18,VWS V14.01,2013-11-16 16:19:00,
2013-11-16 11:24:00,48.5,46.3,30.32,ENE,73,4.0,6.0,92,0.00,,---,0.18,VWS V14.01,2013-11-16 16:24:00,
2013-11-16 11:29:00,48.6,46.1,30.32,NE,42,6.0,6.0,91,0.00,,---,0.18,VWS V14.01,2013-11-16 16:29:00,
2013-11-16 11:34:00,48.5,46.0,30.32,NNE,26,5.0,6.0,91,0.00,,---,0.18,VWS V14.01,2013-11-16 16:34:00,
2013-11-16 11:39:00,48.4,46.2,30.32,NE,53,3.0,6.0,92,0.00,,---,0.18,VWS V14.01,2013-11-16 16:39:00,
2013-11-16 11:44:00,48.3,46.1,30.31,ENE,68,5.0,6.0,92,0.00,,---,0.18,VWS V14.01,2013-11-16 16:44:00,
2013-11-16 11:49:00,48.2,46.0,30.31,ENE,67,3.0,6.0,92,0.00,,---,0.18,VWS V14.01,2013-11-16 16:49:00,
2013-11-16 11:54:00,48.2,46.0,30.31,ENE,65,4.0,6.0,92,0.00,,---,0.18,VWS V14.01,2013-11-16 16:54:00,
2013-11-16 11:59:00,48.3,46.4,30.31,ENE,72,3.0,6.0,93,0.00,,---,0.18,VWS V14.01,2013-11-16 16:59:00,
2013-11-16 12:04:00,48.4,46.5,30.31,ENE,58,3.0,5.0,93,0.00,,---,0.18,VWS V14.01,2013-11-16 17:04:00,
2013-11-16 12:09:00,48.3,46.4,30.31,ENE,61,4.0,5.0,93,0.00,,---,0.18,VWS V14.01,2013-11-16 17:09:00,
2013-11-16 12:14:00,48.3,46.4,30.31,ENE,65,4.0,6.0,93,0.00,,---,0.18,VWS V14.01,2013-11-16 17:14:00,
2013-11-16 12:19:00,48.4,46.5,30.30,ENE,78,2.0,6.0,93,0.00,,---,0.18,VWS V14.01,2013-11-16 17:19:00,
2013-11-16 12:24:00,48.5,46.9,30.30,ENE,64,2.0,6.0,94,0.00,,---,0.18,VWS V14.01,2013-11-16 17:24:00,
2013-11-16 12:29:00,48.5,46.9,30.30,ENE,74,5.0,6.0,94,0.00,,---,0.18,VWS V14.01,2013-11-16 17:29:00,
2013-11-16 12:34:00,48.5,46.9,30.30,NE,38,5.0,6.0,94,0.00,,---,0.18,VWS V14.01,2013-11-16 17:34:00,
2013-11-16 12:39:00,48.5,46.9,30.30,NE,40,3.0,6.0,94,0.00,,---,0.18,VWS V14.01,2013-11-16 17:39:00,
2013-11-16 12:44:00,48.7,47.0,30.30,ENE,67,0.0,6.0,94,0.00,,---,0.18,VWS V14.01,2013-11-16 17:44:00,
2013-11-16 12:49:00,48.8,47.2,30.30,ENE,69,4.0,6.0,94,0.00,,---,0.18,VWS V14.01,2013-11-16 17:49:00,
2013-11-16 12:55:00,48.9,47.2,30.29,NE,44,2.0,6.0,94,0.00,,---,0.18,VWS V14.01,2013-11-16 17:55:00,
2013-11-16 13:00:00,49.0,47.3,30.29,ENE,67,2.0,6.0,94,0.00,,---,0.18,VWS V14.01,2013-11-16 18:00:00,
2013-11-16 13:05:00,49.2,47.8,30.29,ENE,64,4.0,4.0,95,0.00,,---,0.18,VWS V14.01,2013-11-16 18:05:00,
2013-11-16 13:10:00,49.2,47.5,30.29,East,80,2.0,4.0,94,0.00,,---,0.18,VWS V14.01,2013-11-16 18:10:00,
2013-11-16 13:15:00,49.3,47.9,30.28,NE,38,4.0,4.0,95,0.00,,---,0.18,VWS V14.01,2013-11-16 18:15:00,
2013-11-16 13:20:00,49.4,48.0,30.28,ENE,58,3.0,5.0,95,0.00,,---,0.18,VWS V14.01,2013-11-16 18:20:00,
2013-11-16 13:25:00,49.5,48.1,30.28,NE,34,4.0,6.0,95,0.00,,---,0.18,VWS V14.01,2013-11-16 18:25:00,
2013-11-16 13:30:00,49.6,48.2,30.28,ENE,65,2.0,6.0,95,0.00,,---,0.18,VWS V14.01,2013-11-16 18:30:00,
2013-11-16 13:34:00,49.7,48.3,30.28,NNE,32,5.0,5.0,95,0.00,,---,0.18,VWS V14.01,2013-11-16 18:34:00,
2013-11-16 13:39:00,49.5,47.8,30.29,NE,40,5.0,6.0,94,0.00,,---,0.18,VWS V14.01,2013-11-16 18:39:00,
2013-11-16 13:44:00,49.7,48.3,30.28,North,10,2.0,6.0,95,0.00,,---,0.18,VWS V14.01,2013-11-16 18:44:00,
2013-11-16 13:49:00,49.7,48.0,30.28,NNE,30,6.0,6.0,94,0.00,,---,0.18,VWS V14.01,2013-11-16 18:49:00,
2013-11-16 13:54:00,49.8,48.2,30.28,NNE,20,2.0,6.0,94,0.00,,---,0.18,VWS V14.01,2013-11-16 18:54:00,
2013-11-16 13:59:00,49.9,48.2,30.28,ENE,76,3.0,6.0,94,0.00,,---,0.18,VWS V14.01,2013-11-16 18:59:00,
2013-11-16 14:04:00,49.8,48.2,30.29,East,97,3.0,6.0,94,0.00,,---,0.18,VWS V14.01,2013-11-16 19:04:00,
2013-11-16 14:09:00,49.9,48.2,30.29,NNE,20,2.0,6.0,94,0.00,,---,0.18,VWS V14.01,2013-11-16 19:09:00,
2013-11-16 14:14:00,49.7,48.0,30.29,NE,40,3.0,6.0,94,0.00,,---,0.18,VWS V14.01,2013-11-16 19:14:00,
2013-11-16 14:19:00,49.9,48.2,30.29,NE,39,3.0,6.0,94,0.00,,---,0.18,VWS V14.01,2013-11-16 19:19:00,
2013-11-16 14:24:00,50.0,48.3,30.29,NE,36,2.0,6.0,94,0.00,,---,0.18,VWS V14.01,2013-11-16 19:24:00,
2013-11-16 14:29:00,50.1,48.4,30.29,NNW,337,2.0,6.0,94,0.00,,---,0.18,VWS V14.01,2013-11-16 19:29:00,
2013-11-16 14:34:00,50.3,48.6,30.29,ENE,58,3.0,4.0,94,0.00,,---,0.18,VWS V14.01,2013-11-16 19:34:00,
2013-11-16 14:39:00,50.4,48.7,30.29,NE,34,3.0,4.0,94,0.00,,---,0.18,VWS V14.01,2013-11-16 19:39:00,
2013-11-16 14:44:00,50.6,48.9,30.29,North,355,2.0,4.0,94,0.00,,---,0.18,VWS V14.01,2013-11-16 19:44:00,
2013-11-16 14:49:00,50.7,49.0,30.30,NW,319,3.0,4.0,94,0.00,,---,0.18,VWS V14.01,2013-11-16 19:49:00,
2013-11-16 14:54:00,50.7,48.8,30.30,NW,324,1.0,4.0,93,0.00,,---,0.18,VWS V14.01,2013-11-16 19:54:00,
2013-11-16 14:59:00,50.6,48.7,30.30,NNE,22,2.0,5.0,93,0.00,,---,0.18,VWS V14.01,2013-11-16 19:59:00,
2013-11-16 15:04:00,50.6,48.7,30.30,ENE,58,0.0,5.0,93,0.00,,---,0.18,VWS V14.01,2013-11-16 20:04:00,
2013-11-16 15:09:00,50.6,48.7,30.30,NE,56,4.0,5.0,93,0.00,,---,0.18,VWS V14.01,2013-11-16 20:09:00,
2013-11-16 15:14:00,50.8,48.8,30.30,NNE,29,3.0,5.0,93,0.00,,---,0.18,VWS V14.01,2013-11-16 20:14:00,
2013-11-16 15:19:00,50.7,48.8,30.30,North,9,1.0,6.0,93,0.00,,---,0.18,VWS V14.01,2013-11-16 20:19:00,
2013-11-16 15:24:00,50.7,48.8,30.29,ENE,58,3.0,6.0,93,0.00,,---,0.18,VWS V14.01,2013-11-16 20:24:00,
2013-11-16 15:29:00,50.8,48.8,30.29,NE,48,0.0,6.0,93,0.00,,---,0.18,VWS V14.01,2013-11-16 20:29:00,
2013-11-16 15:34:00,50.7,48.8,30.29,North,6,0.0,4.0,93,0.00,,---,0.18,VWS V14.01,2013-11-16 20:34:00,
2013-11-16 15:39:00,50.7,48.8,30.29,NNE,27,2.0,4.0,93,0.00,,---,0.18,VWS V14.01,2013-11-16 20:39:00,
2013-11-16 15:44:00,50.6,48.7,30.29,NE,39,4.0,5.0,93,0.00,,---,0.18,VWS V14.01,2013-11-16 20:44:00,
2013-11-16 15:49:00,50.5,48.6,30.29,North,358,1.0,5.0,93,0.00,,---,0.18,VWS V14.01,2013-11-16 20:49:00,
2013-11-16 15:54:00,50.4,48.5,30.29,NE,45,3.0,6.0,93,0.00,,---,0.18,VWS V14.01,2013-11-16 20:54:00,
2013-11-16 15:59:00,50.3,48.4,30.29,NE,39,3.0,7.0,93,0.00,,---,0.18,VWS V14.01,2013-11-16 20:59:00,
2013-11-16 16:04:00,50.3,48.4,30.29,NE,52,2.0,6.0,93,0.00,,---,0.18,VWS V14.01,2013-11-16 21:04:00,
2013-11-16 16:09:00,50.2,48.3,30.29,ENE,64,1.0,6.0,93,0.00,,---,0.18,VWS V14.01,2013-11-16 21:09:00,
2013-11-16 16:14:00,50.2,48.3,30.29,North,10,1.0,6.0,93,0.00,,---,0.18,VWS V14.01,2013-11-16 21:14:00,
2013-11-16 16:19:00,50.1,48.2,30.29,NNE,30,1.0,6.0,93,0.00,,---,0.18,VWS V14.01,2013-11-16 21:19:00,
2013-11-16 16:24:00,50.0,48.1,30.29,NE,41,4.0,6.0,93,0.00,,---,0.18,VWS V14.01,2013-11-16 21:24:00,
2013-11-16 16:29:00,49.9,48.0,30.29,ENE,58,2.0,6.0,93,0.00,,---,0.18,VWS V14.01,2013-11-16 21:29:00,
2013-11-16 16:34:00,49.8,48.2,30.28,ENE,67,2.0,5.0,94,0.00,,---,0.18,VWS V14.01,2013-11-16 21:34:00,
2013-11-16 16:39:00,49.7,48.0,30.28,NE,41,4.0,5.0,94,0.00,,---,0.18,VWS V14.01,2013-11-16 21:39:00,
2013-11-16 16:44:00,49.7,48.0,30.28,NNE,27,3.0,5.0,94,0.00,,---,0.18,VWS V14.01,2013-11-16 21:44:00,
2013-11-16 16:49:00,49.7,48.0,30.28,NE,44,4.0,6.0,94,0.00,,---,0.18,VWS V14.01,2013-11-16 21:49:00,
2013-11-16 16:54:00,49.7,48.0,30.28,NE,51,3.0,6.0,94,0.00,,---,0.18,VWS V14.01,2013-11-16 21:54:00,
2013-11-16 16:59:00,49.8,48.2,30.29,NNE,27,2.0,6.0,94,0.00,,---,0.18,VWS V14.01,2013-11-16 21:59:00,
2013-11-16 17:04:00,49.9,48.2,30.29,NE,53,3.0,4.0,94,0.00,,---,0.18,VWS V14.01,2013-11-16 22:04:00,
2013-11-16 17:09:00,49.9,48.2,30.28,NE,50,3.0,5.0,94,0.00,,---,0.18,VWS V14.01,2013-11-16 22:09:00,
2013-11-16 17:14:00,50.0,48.3,30.29,NE,35,2.0,5.0,94,0.00,,---,0.18,VWS V14.01,2013-11-16 22:14:00,
2013-11-16 17:19:00,50.0,48.3,30.29,NE,56,2.0,5.0,94,0.00,,---,0.18,VWS V14.01,2013-11-16 22:19:00,
2013-11-16 17:24:00,50.1,48.4,30.28,NNE,23,3.0,5.0,94,0.00,,---,0.18,VWS V14.01,2013-11-16 22:24:00,
2013-11-16 17:29:00,50.1,48.4,30.29,NNE,13,2.0,5.0,94,0.00,,---,0.18,VWS V14.01,2013-11-16 22:29:00,
2013-11-16 17:34:00,50.2,48.5,30.29,NE,39,2.0,4.0,94,0.00,,---,0.18,VWS V14.01,2013-11-16 22:34:00,
2013-11-16 17:39:00,50.3,48.6,30.29,NNE,18,1.0,5.0,94,0.00,,---,0.18,VWS V14.01,2013-11-16 22:39:00,
2013-11-16 17:44:00,50.4,48.7,30.29,NE,37,2.0,5.0,94,0.00,,---,0.18,VWS V14.01,2013-11-16 22:44:00,
2013-11-16 17:49:00,50.5,48.8,30.29,NNE,28,1.0,5.0,94,0.00,,---,0.18,VWS V14.01,2013-11-16 22:49:00,
2013-11-16 17:54:00,50.6,48.9,30.29,ENE,60,1.0,5.0,94,0.00,,---,0.18,VWS V14.01,2013-11-16 22:54:00,
2013-11-16 17:59:00,50.6,48.9,30.29,NE,37,1.0,5.0,94,0.00,,---,0.18,VWS V14.01,2013-11-16 22:59:00,
2013-11-16 18:04:00,50.6,48.9,30.29,NE,40,3.0,4.0,94,0.00,,---,0.18,VWS V14.01,2013-11-16 23:04:00,
2013-11-16 18:09:00,50.6,48.9,30.29,NE,38,2.0,4.0,94,0.00,,---,0.18,VWS V14.01,2013-11-16 23:09:00,
2013-11-16 18:14:00,50.5,48.8,30.29,NE,49,1.0,5.0,94,0.00,,---,0.18,VWS V14.01,2013-11-16 23:14:00,
2013-11-16 18:19:00,50.6,48.9,30.29,NE,56,2.0,5.0,94,0.00,,---,0.18,VWS V14.01,2013-11-16 23:19:00,
2013-11-16 18:24:00,50.8,49.1,30.29,NNE,32,3.0,5.0,94,0.00,,---,0.18,VWS V14.01,2013-11-16 23:24:00,
2013-11-16 18:29:00,51.0,49.3,30.28,ENE,72,3.0,5.0,94,0.00,,---,0.18,VWS V14.01,2013-11-16 23:29:00,
2013-11-16 18:35:00,51.1,49.4,30.28,ENE,68,1.0,6.0,94,0.00,,---,0.18,VWS V14.01,2013-11-16 23:35:00,
2013-11-16 18:40:00,51.2,49.5,30.28,NNE,18,3.0,6.0,94,0.00,,---,0.18,VWS V14.01,2013-11-16 23:40:00,
2013-11-16 18:44:00,51.2,49.5,30.28,NE,39,1.0,6.0,94,0.00,,---,0.18,VWS V14.01,2013-11-16 23:44:00,
2013-11-16 18:49:00,51.2,49.5,30.28,NE,34,3.0,6.0,94,0.00,,---,0.18,VWS V14.01,2013-11-16 23:49:00,
2013-11-16 18:55:00,51.4,49.7,30.28,NE,49,2.0,6.0,94,0.00,,---,0.18,VWS V14.01,2013-11-16 23:55:00,
2013-11-16 19:00:00,51.5,49.8,30.28,NNE,33,2.0,6.0,94,0.00,,---,0.18,VWS V14.01,2013-11-17 00:00:00,
2013-11-16 19:05:00,51.5,49.8,30.28,NE,44,4.0,5.0,94,0.00,,---,0.18,VWS V14.01,2013-11-17 00:05:00,
2013-11-16 19:10:00,51.5,49.8,30.27,NNE,30,2.0,5.0,94,0.00,,---,0.18,VWS V14.01,2013-11-17 00:10:00,
2013-11-16 19:15:00,51.5,49.8,30.28,NE,39,3.0,5.0,94,0.00,,---,0.18,VWS V14.01,2013-11-17 00:15:00,
2013-11-16 19:20:00,51.7,50.0,30.27,NNE,27,2.0,5.0,94,0.00,,---,0.18,VWS V14.01,2013-11-17 00:20:00,
2013-11-16 19:25:00,51.9,50.2,30.27,NE,52,2.0,5.0,94,0.00,,---,0.18,VWS V14.01,2013-11-17 00:25:00,
2013-11-16 19:30:00,52.0,50.0,30.27,NNE,27,0.0,5.0,93,0.00,,---,0.18,VWS V14.01,2013-11-17 00:30:00,
2013-11-16 19:35:00,51.9,49.9,30.27,NE,41,0.0,1.0,93,0.00,,---,0.18,VWS V14.01,2013-11-17 00:35:00,
2013-11-16 19:40:00,51.9,49.9,30.28,NE,38,0.0,2.0,93,0.00,,---,0.18,VWS V14.01,2013-11-17 00:40:00,
2013-11-16 19:45:00,51.8,49.8,30.28,NNW,346,0.0,2.0,93,0.00,,---,0.18,VWS V14.01,2013-11-17 00:45:00,
2013-11-16 19:50:00,51.7,49.8,30.27,ENE,65,2.0,2.0,93,0.00,,---,0.18,VWS V14.01,2013-11-17 00:50:00,
2013-11-16 19:55:00,51.5,49.5,30.27,NE,42,2.0,2.0,93,0.00,,---,0.18,VWS V14.01,2013-11-17 00:55:00,
2013-11-16 20:00:00,51.6,49.7,30.26,NE,51,1.0,3.0,93,0.00,,---,0.18,VWS V14.01,2013-11-17 01:00:00,
2013-11-16 20:05:00,51.6,49.7,30.26,NE,39,2.0,4.0,93,0.00,,---,0.18,VWS V14.01,2013-11-17 01:05:00,
2013-11-16 20:10:00,51.7,49.8,30.26,NE,39,3.0,4.0,93,0.00,,---,0.18,VWS V14.01,2013-11-17 01:10:00,
2013-11-16 20:15:00,51.7,49.8,30.26,ENE,58,1.0,4.0,93,0.00,,---,0.18,VWS V14.01,2013-11-17 01:15:00,
2013-11-16 20:20:00,51.7,49.8,30.26,NE,34,3.0,5.0,93,0.00,,---,0.18,VWS V14.01,2013-11-17 01:20:00,
2013-11-16 20:25:00,51.7,49.8,30.26,NE,46,3.0,5.0,93,0.00,,---,0.18,VWS V14.01,2013-11-17 01:25:00,
2013-11-16 20:30:00,51.8,50.1,30.26,NE,42,3.0,5.0,94,0.00,,---,0.18,VWS V14.01,2013-11-17 01:30:00,
2013-11-16 20:35:00,51.7,49.8,30.26,NNE,32,3.0,5.0,93,0.00,,---,0.18,VWS V14.01,2013-11-17 01:35:00,
2013-11-16 20:40:00,51.6,49.9,30.27,NE,41,3.0,5.0,94,0.00,,---,0.18,VWS V14.01,2013-11-17 01:40:00,
2013-11-16 20:45:00,51.6,49.9,30.27,North,1,5.0,5.0,94,0.00,,---,0.18,VWS V14.01,2013-11-17 01:45:00,
2013-11-16 20:50:00,51.6,49.9,30.26,NNE,32,5.0,5.0,94,0.00,,---,0.18,VWS V14.01,2013-11-17 01:50:00,
2013-11-16 20:55:00,51.6,49.9,30.26,ENE,68,1.0,5.0,94,0.00,,---,0.18,VWS V14.01,2013-11-17 01:55:00,
2013-11-16 21:00:00,51.4,49.7,30.26,NE,41,5.0,5.0,94,0.00,,---,0.18,VWS V14.01,2013-11-17 02:00:00,
2013-11-16 21:05:00,51.5,49.8,30.26,NE,37,3.0,5.0,94,0.00,,---,0.18,VWS V14.01,2013-11-17 02:05:00,
2013-11-16 21:10:00,52.0,50.6,30.27,NNE,32,2.0,5.0,95,0.00,,---,0.18,VWS V14.01,2013-11-17 02:10:00,
2013-11-16 21:15:00,52.1,50.4,30.26,NE,42,0.0,5.0,94,0.00,,---,0.18,VWS V14.01,2013-11-17 02:15:00,
2013-11-16 21:20:00,51.9,50.2,30.26,NE,39,0.0,5.0,94,0.00,,---,0.18,VWS V14.01,2013-11-17 02:20:00,
2013-11-16 21:25:00,52.0,50.3,30.26,NE,37,2.0,5.0,94,0.00,,---,0.18,VWS V14.01,2013-11-17 02:25:00,
2013-11-16 21:30:00,52.1,50.4,30.26,NE,40,0.0,5.0,94,0.00,,---,0.18,VWS V14.01,2013-11-17 02:30:00,
2013-11-16 21:35:00,52.0,50.3,30.26,NNE,18,0.0,4.0,94,0.00,,---,0.18,VWS V14.01,2013-11-17 02:35:00,
2013-11-16 21:40:00,51.7,50.0,30.26,NE,39,1.0,4.0,94,0.00,,---,0.18,VWS V14.01,2013-11-17 02:40:00,
2013-11-16 21:45:00,51.8,50.1,30.26,North,1,1.0,4.0,94,0.00,,---,0.18,VWS V14.01,2013-11-17 02:45:00,
2013-11-16 21:50:00,51.6,49.9,30.26,NE,48,1.0,4.0,94,0.00,,---,0.18,VWS V14.01,2013-11-17 02:50:00,
2013-11-16 21:55:00,51.2,49.5,30.26,NW,310,3.0,4.0,94,0.00,,---,0.18,VWS V14.01,2013-11-17 02:55:00,
2013-11-16 22:00:00,50.9,49.2,30.26,NW,312,0.0,4.0,94,0.00,,---,0.18,VWS V14.01,2013-11-17 03:00:00,
2013-11-16 22:05:00,50.6,48.9,30.26,West,261,0.0,2.0,94,0.00,,---,0.18,VWS V14.01,2013-11-17 03:05:00,
2013-11-16 22:10:00,50.4,48.7,30.26,NW,310,0.0,2.0,94,0.00,,---,0.18,VWS V14.01,2013-11-17 03:10:00,
2013-11-16 22:15:00,50.4,48.7,30.25,WNW,303,0.0,2.0,94,0.00,,---,0.18,VWS V14.01,2013-11-17 03:15:00,
2013-11-16 22:20:00,50.2,48.5,30.25,North,352,0.0,2.0,94,0.00,,---,0.18,VWS V14.01,2013-11-17 03:20:00,
2013-11-16 22:25:00,49.9,48.2,30.25,NW,305,0.0,2.0,94,0.00,,---,0.18,VWS V14.01,2013-11-17 03:25:00,
2013-11-16 22:30:00,49.6,48.0,30.25,NW,325,0.0,2.0,94,0.00,,---,0.18,VWS V14.01,2013-11-17 03:30:00,
2013-11-16 22:35:00,49.4,47.8,30.25,NW,319,0.0,3.0,94,0.00,,---,0.18,VWS V14.01,2013-11-17 03:35:00,
2013-11-16 22:40:00,49.5,48.1,30.25,NNE,18,0.0,3.0,95,0.00,,---,0.18,VWS V14.01,2013-11-17 03:40:00,
2013-11-16 22:45:00,49.7,48.3,30.25,NNE,14,1.0,3.0,95,0.00,,---,0.18,VWS V14.01,2013-11-17 03:45:00,
2013-11-16 22:50:00,49.9,48.5,30.26,NNE,12,3.0,3.0,95,0.00,,---,0.18,VWS V14.01,2013-11-17 03:50:00,
2013-11-16 22:55:00,50.2,48.8,30.25,NNW,340,1.0,3.0,95,0.00,,---,0.18,VWS V14.01,2013-11-17 03:55:00,
2013-11-16 23:00:00,50.8,49.7,30.25,NE,53,1.0,4.0,96,0.00,,---,0.18,VWS V14.01,2013-11-17 04:00:00,
2013-11-16 23:05:00,50.8,49.4,30.25,NE,48,1.0,2.0,95,0.00,,---,0.18,VWS V14.01,2013-11-17 04:05:00,
2013-11-16 23:11:00,50.7,49.3,30.25,NE,50,0.0,3.0,95,0.00,,---,0.18,VWS V14.01,2013-11-17 04:11:00,
2013-11-16 23:16:00,50.7,49.3,30.25,East,79,0.0,3.0,95,0.00,,---,0.18,VWS V14.01,2013-11-17 04:16:00,
2013-11-16 23:21:00,50.4,49.0,30.24,NNW,339,0.0,3.0,95,0.00,,---,0.18,VWS V14.01,2013-11-17 04:21:00,
2013-11-16 23:26:00,50.3,48.9,30.25,NE,42,1.0,3.0,95,0.00,,---,0.18,VWS V14.01,2013-11-17 04:26:00,
2013-11-16 23:31:00,50.1,48.7,30.25,East,95,1.0,3.0,95,0.00,,---,0.18,VWS V14.01,2013-11-17 04:31:00,
2013-11-16 23:36:00,50.4,49.3,30.24,NNW,348,2.0,2.0,96,0.00,,---,0.18,VWS V14.01,2013-11-17 04:36:00,
2013-11-16 23:41:00,50.5,49.1,30.24,NNE,17,1.0,3.0,95,0.00,,---,0.18,VWS V14.01,2013-11-17 04:41:00,
2013-11-16 23:46:00,50.5,49.1,30.24,North,8,0.0,3.0,95,0.00,,---,0.18,VWS V14.01,2013-11-17 04:46:00,
2013-11-16 23:51:00,50.1,48.7,30.23,NW,306,2.0,4.0,95,0.00,,---,0.18,VWS V14.01,2013-11-17 04:51:00,
2013-11-16 23:56:00,50.3,49.2,30.23,NNE,16,3.0,5.0,96,0.00,,---,0.18,VWS V14.01,2013-11-17 04:56:00,